Location: Wien
(48.2082°N, 16.3738°E)
Time: 12:45:15
(UTC+02:00)

Tiros 1 despin weight - Pass Details

Date: 17 September 2024
Orbit: 573 x 615 km, 48.2° (Epoch: 06 October)

Event Time Altitude Azimuth Distance (km) Brightness Sun altitude
Rises 04:23:41 0° 243° (WSW) 2,865 - -21.5°
Reaches altitude 10° 04:25:59 10° 240° (WSW) 1,967 - -21.2°
Exits shadow 04:29:37 51° 209° (SSW) 777 ? -20.7°
Maximum altitude 04:30:27 62° 161° (SSE) 694 ? -20.6°
Drops below altitude 10° 04:34:58 10° 80° (E) 1,983 ? -19.9°
Sets 04:37:18 0° 78° (ENE) 2,890 ? -19.5°
